Regional Weather Roundup
Issued by NWS

Home | Current Version | Previous Version | Text Only | Print | Product List | Glossary On
Versions: 1 2 3 4 5 6 7 8 9 10 11 12 13 14 15 16 17 18 19 20 21 22 23 24 25 26 27
000
ASUS42 KTBW 310616
RWRFL
FLORIDA REGIONAL WEATHER ROUNDUP
NATIONAL WEATHER SERVICE TAMPA BAY RUSKIN FL
200 AM EDT SAT JUL 31 2021

NOTE: "FAIR" INDICATES FEW OR NO CLOUDS BELOW 12,000 FEET WITH NO
SIGNIFICANT WEATHER AND/OR OBSTRUCTIONS TO VISIBILITY.

FLZ001>010-012>015-112-114-115-310700-
PANHANDLE FLORIDA

CITY           SKY/WX    TMP DP  RH WIND       PRES   REMARKS
PENSACOLA      CLEAR     83  79  88 W3        30.01F
PENSACOLA NAS  CLEAR     80  78  94 CALM      30.01F
CRESTVIEW      CLEAR     80  78  94 CALM      30.02F FOG
DUKE FIELD     FAIR      80  78  94 SW3       30.01F
VALPARAISO     CLEAR     81  78  91 CALM      30.00F
MARY ESTHER    CLEAR     83  78  86 CALM      30.00F
TRI COUNTY     FAIR      79  77  94 CALM      30.01F FOG
PANAMA CITY    FAIR      82  81  96 CALM      30.00F HX  95
TYNDALL AFB    MOCLDY    86  81  84 NW6       29.99F THUNDER HX 102
APALACHICOLA   CLEAR     81  80  97 CALM      30.01F

STATION/POSITION SKY/WX   TEMP    WIND        PRES    WAVE   SWELL
                          AIR SEA DIR/SP/G            HT/PER HT/PER
                          (F)     (DEG/KT/KT) (MB)    (FT/S) (FT/S)
30.1N   87.6W              88 88  280/ 12/ 14   N/A     2/ 3
29.2N   88.2W              85     270/  8/ 10 1017.1
28.8N   86.0W              85 85  270/  8/  8 1017.5F   2/ 5   2/ 5
PANAMA CITY BEAC           85 85  290/  8/  9 1016.8F
TOWER C                    84     240/  5/  6 1016.7F
28.5N   84.5W              83 85  230/ 10/ 12 1016.5F   2/ 5   2/ 5

$$
FLZ011-016>038-118-127-128-134-139-239-310700-
NORTH FLORIDA

CITY           SKY/WX    TMP DP  RH WIND       PRES   REMARKS
MARIANNA       CLEAR     81  77  88 CALM      30.00S
TALLAHASSEE    PTCLDY    80  77  90 S3        30.01F
LIVE OAK       CLEAR     77  77 100 CALM      30.02F
CROSS CITY     CLEAR     77  76  97 CALM      30.03F
LAKE CITY      FAIR      77  73  88 CALM      30.03F
GAINESVILLE    CLEAR     78  76  93 SW5       30.06F
WILLISTON      MOCLDY    76  75  98 CALM      30.05F
PALATKA        FAIR      75  72  88 SW6       30.04F
MAYPORT NAS    PTCLDY    83  78  85 SW8       30.02S
JACKSONVILLE   PTCLDY    78  76  93 SW5       30.01S
JAX NAS        PTCLDY    79  77  94 SW7       30.03F
JAX CECIL      CLEAR     77  77 100 CALM      30.03S
FERNANDINA BEA FAIR      81 N/A N/A SW8       30.02S
ST AUGUSTINE   PTCLDY    80  77  90 W6        30.04F

STATION/POSITION SKY/WX   TEMP    WIND        PRES    WAVE   SWELL
                          AIR SEA DIR/SP/G            HT/PER HT/PER
                          (F)     (DEG/KT/KT) (MB)    (FT/S) (FT/S)
SHELL POINT      NOT AVBL
KEATON BEACH               84     230/ 10/ 12 1016.7F
CEDAR KEY                  84     240/  9/ 13 1017.3F
FERNANDINA                 86 87  220/  4/  7 1016.6F
30.7N   81.3W              83 85                N/A     2/ 4
MAYPORT                    82 87  240/  9/ 13 1017.1F
31.4N   80.9W              85 85  250/ 16/ 19 1014.3F   3/ 4
ST AUGUSTINE               80 84  230/  6/  7 1017.3F

$$
FLZ040-043>046-052-053-057-058-063-144-310700-
INTERIOR CENTRAL FLORIDA

CITY           SKY/WX    TMP DP  RH WIND       PRES   REMARKS
OCALA          PTCLDY    77  77 100 CALM      30.06S
LEESBURG       CLEAR     81  76  84 SW7       30.06F
SANFORD        PTCLDY    81  74  79 CALM      30.05S
ORLANDO EXEC   CLEAR     81  75  82 SW5       30.06S
ORLANDO INTL   PTCLDY    81  75  82 W6        30.06S
KISSIMMEE      CLEAR    N/A N/A N/A W6        30.07F
WINTER HAVEN   PTCLDY    80  75  84 SW7       30.08F
LAKELAND       PTCLDY    77  73  88 S5        30.08S
BARTOW         FAIR      77  75  94 SW5       30.07F
SEBRING        FAIR      78  75  90 W5        30.08S
OKEECHOBEE     MOCLDY   N/A N/A N/A MISG      30.07S

$$
FLZ041-047-054-059-064-141-147-310700-
EAST CENTRAL FLORIDA

CITY           SKY/WX    TMP DP  RH WIND       PRES   REMARKS
DAYTONA BEACH  PTCLDY    79  75  87 CALM      30.05S
DELAND         CLEAR     79  76  90 CALM      30.06S
JFK SPACE CTR  PTCLDY    78  76  95 W6        30.04S
CAPE CANAVERAL PTCLDY    78  76  92 SW6       30.04S
PATRICK AFB    PTCLDY    83  81  93 SW6       30.03F HX  96
MELBOURNE      PTCLDY    81  75  82 SW7       30.04F
VERO BEACH     PTCLDY    81  74  79 S8        30.06F
FT PIERCE      MOCLDY    80  75  84 SW5       30.06F
STUART         PTCLDY    82  75  78 SW6       30.08S

STATION/POSITION SKY/WX   TEMP    WIND        PRES    WAVE   SWELL
                          AIR SEA DIR/SP/G            HT/PER HT/PER
                          (F)     (DEG/KT/KT) (MB)    (FT/S) (FT/S)
28.5N   80.2W              84 85  220/ 10/ 12 1016.5F   2/ 4   2/ 9
28.9N   78.5W              84 84  200/ 14/ 17 1017.7F
TRIDENT PIER               81 84  230/  3/  4 1018.5F
28.4N   80.5W                 83                N/A     2/ 4
27.5N   80.2W                 83                N/A     1/ 3

$$
FLZ050-056-061-142-242-148-248-149-249-151-251-155-255-
160-260-310700-
WEST CENTRAL FLORIDA

CITY           SKY/WX    TMP DP  RH WIND       PRES   REMARKS
INVERNESS      FAIR      75  75 100 CALM      30.06F
BROOKSVILLE    MOCLDY    76  74  93 CALM      30.06F
CLEARWATER AIR FAIR      81  73  78 CALM      30.06F
ST PETE CLEARW PTCLDY    81  75  82 CALM      30.06F
TAMPA INTL     PTCLDY    84  76  76 SW7       30.06F
TAMPA EXEC     PTCLDY    77  77 100 CALM      30.07S
PLANT CITY     PTCLDY    79  79 100 S3        30.09S
MACDILL AFB    PTCLDY    82  69  63 SW6       30.03F
PETER O KNIGHT CLOUDY    82  77  83 SW3       30.06F
ST PETERSBURG  PTCLDY    84  76  76 SW5       30.04F
SARASOTA       CLEAR     83  76  79 SW3       30.05S
VENICE         FAIR      81  75  83 CALM      30.07F

STATION/POSITION SKY/WX   TEMP    WIND        PRES    WAVE   SWELL
                          AIR SEA DIR/SP/G            HT/PER HT/PER
                          (F)     (DEG/KT/KT) (MB)    (FT/S) (FT/S)
27.3N   84.3W                 84                N/A     2/ 4
CLEARWATER BEACH           85 90  210/  9/ 10 1018.2F
MIDDLE TAMPA BAY           84     280/  7/  8   N/A
VENICE                     84 89  250/  4/  5 1017.8F

$$
FLZ066-069-070-075>078-162-262-165-265-310700-
SOUTHWEST FLORIDA AND KEYS

CITY           SKY/WX    TMP DP  RH WIND       PRES   REMARKS
PUNTA GORDA    CLEAR     79  77  94 NE3       30.09R
FT MYERS       CLEAR     81  76  84 CALM      30.06S
SOUTHWEST INTL CLEAR     79  74  84 CALM      30.07S
NAPLES         CLEAR     83  77  82 E3        30.06F
IMMOKALEE      FAIR      77  77 100 CALM      30.07S
MARATHON       MOCLDY    84  76  76 SE7       30.06F
KEY WEST NAS   PTCLDY    87  73  62 E13       30.07F
KEY WEST INTL  PTCLDY    85  75  72 SE12      30.07F

STATION/POSITION SKY/WX   TEMP    WIND        PRES    WAVE   SWELL
                          AIR SEA DIR/SP/G            HT/PER HT/PER
                          (F)     (DEG/KT/KT) (MB)    (FT/S) (FT/S)
NAPLES                     89 90              1018.9F
26.0N   85.6W              84 87   CALM  /  2 1017.1F   1/ 6   2/ 6
DRY TORTUGAS     NOT AVBL
SAND KEY                   84     120/ 12/ 15 1018.5F
SOMBRERO KEY                      130/  9/ 12 1017.3F
LONG KEY                                      1018.0F

$$
FLZ067-068-071>074-168-172>174-310700-
SOUTHEAST FLORIDA

CITY           SKY/WX    TMP DP  RH WIND       PRES   REMARKS
W PALM BEACH   PTCLDY    83  76  79 S5        30.08S
FT LAUDER-EXEC CLEAR     83  76  79 CALM      30.07F
FT LAUDERDALE  PTCLDY    84  75  74 S3        30.07F
POMPANO BEACH  CLEAR     84  74  71 CALM      30.07F
PEMBROKE PINES CLEAR     82  74  76 S5        30.09F
OPA LOCKA      CLEAR     80  76  87 SE3       30.08F
MIAMI          PTCLDY    83  76  79 CALM      30.08F
WEST KENDALL   CLEAR     81  75  82 CALM      30.08F
HOMESTEAD      CLEAR     79  76  89 CALM      30.07F

STATION/POSITION SKY/WX   TEMP    WIND        PRES    WAVE   SWELL
                          AIR SEA DIR/SP/G            HT/PER HT/PER
                          (F)     (DEG/KT/KT) (MB)    (FT/S) (FT/S)
VIRGINIA KEY               85 91  140/  4/  5 1019.3S
LAKE WORTH                 83 86  180/ 13/ 17 1018.1R
FOWEY ROCKS                84 86  110/  5/  5 1018.7F
SETTLEMENT POINT           84     170/  7/  9 1018.5F

$$




USA.gov is the U.S. government's official web portal to all federal, state and local government web resources and services.